Year,Month,Day,Hour,Minute,Value (Times are PST for temperature in C)
2016,10,10,00,00,2.80
2016,10,10,00,01,2.80
2016,10,10,00,02,2.80
2016,10,10,00,03,2.70
2016,10,10,00,04,2.70
2016,10,10,00,05,2.70
2016,10,10,00,06,2.70
2016,10,10,00,07,2.70
2016,10,10,00,08,2.70
2016,10,10,00,09,2.60
2016,10,10,00,10,2.60
2016,10,10,00,11,2.60
2016,10,10,00,12,2.60
2016,10,10,00,13,2.60
2016,10,10,00,14,2.60
2016,10,10,00,15,2.60
2016,10,10,00,16,2.60
2016,10,10,00,17,2.60
2016,10,10,00,18,2.60
2016,10,10,00,19,2.60
2016,10,10,00,20,2.60
2016,10,10,00,21,2.60
2016,10,10,00,22,2.70
2016,10,10,00,23,2.70
2016,10,10,00,24,2.70
2016,10,10,00,25,2.70
2016,10,10,00,26,2.70
2016,10,10,00,27,2.70
2016,10,10,00,28,2.60
2016,10,10,00,29,2.70
2016,10,10,00,30,2.70
2016,10,10,00,31,2.70
2016,10,10,00,32,2.70
2016,10,10,00,33,2.70
2016,10,10,00,34,2.70
2016,10,10,00,35,2.80
2016,10,10,00,36,2.80
2016,10,10,00,37,2.80
2016,10,10,00,38,2.80
2016,10,10,00,39,2.80
2016,10,10,00,40,2.80
2016,10,10,00,41,2.90
2016,10,10,00,42,2.90
2016,10,10,00,43,2.90
2016,10,10,00,44,2.90
2016,10,10,00,45,2.90
2016,10,10,00,46,2.90
2016,10,10,00,47,2.90
2016,10,10,00,48,2.90
2016,10,10,00,49,2.80
2016,10,10,00,50,2.80
2016,10,10,00,51,2.80
2016,10,10,00,52,2.80
2016,10,10,00,53,2.70
2016,10,10,00,54,2.70
2016,10,10,00,55,2.70
2016,10,10,00,56,2.60
2016,10,10,00,57,2.60
2016,10,10,00,58,2.60
2016,10,10,00,59,2.60
2016,10,10,01,00,2.50
2016,10,10,01,01,2.50
2016,10,10,01,02,2.50
2016,10,10,01,03,2.50
2016,10,10,01,04,2.50
2016,10,10,01,05,2.50
2016,10,10,01,06,2.50
2016,10,10,01,07,2.40
2016,10,10,01,08,2.40
2016,10,10,01,09,2.40
2016,10,10,01,10,2.40
2016,10,10,01,11,2.40
2016,10,10,01,12,2.40
2016,10,10,01,13,2.40
2016,10,10,01,14,2.40
2016,10,10,01,15,2.40
2016,10,10,01,16,2.30
2016,10,10,01,17,2.40
2016,10,10,01,18,2.40
2016,10,10,01,19,2.40
2016,10,10,01,20,2.40
2016,10,10,01,21,2.40
2016,10,10,01,22,2.40
2016,10,10,01,23,2.40
2016,10,10,01,24,2.40
2016,10,10,01,25,2.30
2016,10,10,01,26,2.30
2016,10,10,01,27,2.30
2016,10,10,01,28,2.30
2016,10,10,01,29,2.30
2016,10,10,01,30,2.30
2016,10,10,01,31,2.20
2016,10,10,01,32,2.20
2016,10,10,01,33,2.20
2016,10,10,01,34,2.10
2016,10,10,01,35,2.00
2016,10,10,01,36,2.00
2016,10,10,01,37,1.90
2016,10,10,01,38,1.90
2016,10,10,01,39,1.80
2016,10,10,01,40,1.80
2016,10,10,01,41,1.70
2016,10,10,01,42,1.70
2016,10,10,01,43,1.60
2016,10,10,01,44,1.60
2016,10,10,01,45,1.50
2016,10,10,01,46,1.50
2016,10,10,01,47,1.50
2016,10,10,01,48,1.50
2016,10,10,01,49,1.50
2016,10,10,01,50,1.50
2016,10,10,01,51,1.50
2016,10,10,01,52,1.50
2016,10,10,01,53,1.50
2016,10,10,01,54,1.50
2016,10,10,01,55,1.50
2016,10,10,01,56,1.50
2016,10,10,01,57,1.50
2016,10,10,01,58,1.60
2016,10,10,01,59,1.60
2016,10,10,02,00,1.60
2016,10,10,02,01,1.60
2016,10,10,02,02,1.60
2016,10,10,02,03,1.60
2016,10,10,02,04,1.60
2016,10,10,02,05,1.60
2016,10,10,02,06,1.60
2016,10,10,02,07,1.60
2016,10,10,02,08,1.60
2016,10,10,02,09,1.60
2016,10,10,02,10,1.60
2016,10,10,02,11,1.60
2016,10,10,02,12,1.60
2016,10,10,02,13,1.60
2016,10,10,02,14,1.60
2016,10,10,02,15,1.60
2016,10,10,02,16,1.60
2016,10,10,02,17,1.60
2016,10,10,02,18,1.60
2016,10,10,02,19,1.60
2016,10,10,02,20,1.60
2016,10,10,02,21,1.60
2016,10,10,02,22,1.60
2016,10,10,02,23,1.60
2016,10,10,02,24,1.60
2016,10,10,02,25,1.60
2016,10,10,02,26,1.60
2016,10,10,02,27,1.60
2016,10,10,02,28,1.60
2016,10,10,02,29,1.60
2016,10,10,02,30,1.60
2016,10,10,02,31,1.60
2016,10,10,02,32,1.60
2016,10,10,02,33,1.50
2016,10,10,02,34,1.50
2016,10,10,02,35,1.50
2016,10,10,02,36,1.50
2016,10,10,02,37,1.50
2016,10,10,02,38,1.50
2016,10,10,02,39,1.50
2016,10,10,02,40,1.40
2016,10,10,02,41,1.40
2016,10,10,02,42,1.40
2016,10,10,02,43,1.30
2016,10,10,02,44,1.30
2016,10,10,02,45,1.30
2016,10,10,02,46,1.30
2016,10,10,02,47,1.30
2016,10,10,02,48,1.30
2016,10,10,02,49,1.30
2016,10,10,02,50,1.20
2016,10,10,02,51,1.20
2016,10,10,02,52,1.20
2016,10,10,02,53,1.20
2016,10,10,02,54,1.20
2016,10,10,02,55,1.20
2016,10,10,02,56,1.20
2016,10,10,02,57,1.20
2016,10,10,02,58,1.30
2016,10,10,02,59,1.30
2016,10,10,03,00,1.30
2016,10,10,03,01,1.30
2016,10,10,03,02,1.40
2016,10,10,03,03,1.40
2016,10,10,03,04,1.40
2016,10,10,03,05,1.40
2016,10,10,03,06,1.40
2016,10,10,03,07,1.40
2016,10,10,03,08,1.40
2016,10,10,03,09,1.40
2016,10,10,03,10,1.40
2016,10,10,03,11,1.40
2016,10,10,03,12,1.40
2016,10,10,03,13,1.40
2016,10,10,03,14,1.40
2016,10,10,03,15,1.40
2016,10,10,03,16,1.40
2016,10,10,03,17,1.40
2016,10,10,03,18,1.40
2016,10,10,03,19,1.40
2016,10,10,03,20,1.40
2016,10,10,03,21,1.40
2016,10,10,03,22,1.30
2016,10,10,03,23,1.30
2016,10,10,03,24,1.20
2016,10,10,03,25,1.10
2016,10,10,03,26,1.10
2016,10,10,03,27,1.10
2016,10,10,03,28,1.00
2016,10,10,03,29,1.00
2016,10,10,03,30,0.90
2016,10,10,03,31,0.90
2016,10,10,03,32,0.90
2016,10,10,03,33,0.90
2016,10,10,03,34,0.90
2016,10,10,03,35,0.80
2016,10,10,03,36,0.80
2016,10,10,03,37,0.80
2016,10,10,03,38,0.80
2016,10,10,03,39,0.80
2016,10,10,03,40,0.80
2016,10,10,03,41,0.80
2016,10,10,03,42,0.80
2016,10,10,03,43,0.80
2016,10,10,03,44,0.80
2016,10,10,03,45,0.80
2016,10,10,03,46,0.80
2016,10,10,03,47,0.80
2016,10,10,03,48,0.80
2016,10,10,03,49,0.80
2016,10,10,03,50,0.80
2016,10,10,03,51,0.80
2016,10,10,03,52,0.80
2016,10,10,03,53,0.80
2016,10,10,03,54,0.80
2016,10,10,03,55,0.80
2016,10,10,03,56,0.80
2016,10,10,03,57,0.80
2016,10,10,03,58,0.80
2016,10,10,03,59,0.80
2016,10,10,04,00,0.80
2016,10,10,04,01,0.80
2016,10,10,04,02,0.80
2016,10,10,04,03,0.80
2016,10,10,04,04,0.80
2016,10,10,04,05,0.80
2016,10,10,04,06,0.80
2016,10,10,04,07,0.80
2016,10,10,04,08,0.80
2016,10,10,04,09,0.80
2016,10,10,04,10,0.80
2016,10,10,04,11,0.80
2016,10,10,04,12,0.80
2016,10,10,04,13,0.80
2016,10,10,04,14,0.80
2016,10,10,04,15,0.80
2016,10,10,04,16,0.80
2016,10,10,04,17,0.80
2016,10,10,04,18,0.80
2016,10,10,04,19,0.80
2016,10,10,04,20,0.80
2016,10,10,04,21,0.80
2016,10,10,04,22,0.70
2016,10,10,04,23,0.70
2016,10,10,04,24,0.70
2016,10,10,04,25,0.70
2016,10,10,04,26,0.60
2016,10,10,04,27,0.60
2016,10,10,04,28,0.60
2016,10,10,04,29,0.60
2016,10,10,04,30,0.60
2016,10,10,04,31,0.60
2016,10,10,04,32,0.50
2016,10,10,04,33,0.50
2016,10,10,04,34,0.50
2016,10,10,04,35,0.50
2016,10,10,04,36,0.50
2016,10,10,04,37,0.40
2016,10,10,04,38,0.40
2016,10,10,04,39,0.40
2016,10,10,04,40,0.40
2016,10,10,04,41,0.40
2016,10,10,04,42,0.40
2016,10,10,04,43,0.40
2016,10,10,04,44,0.40
2016,10,10,04,45,0.40
2016,10,10,04,46,0.40
2016,10,10,04,47,0.40
2016,10,10,04,48,0.40
2016,10,10,04,49,0.40
2016,10,10,04,50,0.40
2016,10,10,04,51,0.40
2016,10,10,04,52,0.40
2016,10,10,04,53,0.40
2016,10,10,04,54,0.40
2016,10,10,04,55,0.40
2016,10,10,04,56,0.40
2016,10,10,04,57,0.40
2016,10,10,04,58,0.40
2016,10,10,04,59,0.40
2016,10,10,05,00,0.40
2016,10,10,05,01,0.40
2016,10,10,05,02,0.40
2016,10,10,05,03,0.40
2016,10,10,05,04,0.40
2016,10,10,05,05,0.40
2016,10,10,05,06,0.30
2016,10,10,05,07,0.30
2016,10,10,05,08,0.30
2016,10,10,05,09,0.30
2016,10,10,05,10,0.30
2016,10,10,05,11,0.30
2016,10,10,05,12,0.30
2016,10,10,05,13,0.30
2016,10,10,05,14,0.30
2016,10,10,05,15,0.30
2016,10,10,05,16,0.30
2016,10,10,05,17,0.30
2016,10,10,05,18,0.30
2016,10,10,05,19,0.40
2016,10,10,05,20,0.40
2016,10,10,05,21,0.40
2016,10,10,05,22,0.40
2016,10,10,05,23,0.40
2016,10,10,05,24,0.40
2016,10,10,05,25,0.40
2016,10,10,05,26,0.40
2016,10,10,05,27,0.40
2016,10,10,05,28,0.40
2016,10,10,05,29,0.40
2016,10,10,05,30,0.40
2016,10,10,05,31,0.40
2016,10,10,05,32,0.50
2016,10,10,05,33,0.40
2016,10,10,05,34,0.40
2016,10,10,05,35,0.40
2016,10,10,05,36,0.40
2016,10,10,05,37,0.40
2016,10,10,05,38,0.40
2016,10,10,05,39,0.30
2016,10,10,05,40,0.30
2016,10,10,05,41,0.30
2016,10,10,05,42,0.30
2016,10,10,05,43,0.30
2016,10,10,05,44,0.30
2016,10,10,05,45,0.30
2016,10,10,05,46,0.30
2016,10,10,05,47,0.30
2016,10,10,05,48,0.30
2016,10,10,05,49,0.30
2016,10,10,05,50,0.30
2016,10,10,05,51,0.30
2016,10,10,05,52,0.30
2016,10,10,05,53,0.30
2016,10,10,05,54,0.30
2016,10,10,05,55,0.30
2016,10,10,05,56,0.30
2016,10,10,05,57,0.30
2016,10,10,05,58,0.30
2016,10,10,05,59,0.30
2016,10,10,06,00,0.30
2016,10,10,06,01,0.30
2016,10,10,06,02,0.30
2016,10,10,06,03,0.30
2016,10,10,06,04,0.20
2016,10,10,06,05,0.20
2016,10,10,06,06,0.20
2016,10,10,06,07,0.20
2016,10,10,06,08,0.10
2016,10,10,06,09,0.10
2016,10,10,06,10,0.10
2016,10,10,06,11,0.10
2016,10,10,06,12,0.10
2016,10,10,06,13,0.00
2016,10,10,06,14,0.00
2016,10,10,06,15,0.00
2016,10,10,06,16,0.00
2016,10,10,06,17,0.00
2016,10,10,06,18,0.00
2016,10,10,06,19,0.00
2016,10,10,06,20,0.00
2016,10,10,06,21,0.00
2016,10,10,06,22,0.00
2016,10,10,06,23,0.00
2016,10,10,06,24,-0.10
2016,10,10,06,25,0.00
2016,10,10,06,26,-0.10
2016,10,10,06,27,-0.10
2016,10,10,06,28,-0.10
2016,10,10,06,29,-0.10
2016,10,10,06,30,-0.10
2016,10,10,06,31,-0.10
2016,10,10,06,32,-0.10
2016,10,10,06,33,-0.10
2016,10,10,06,34,-0.10
2016,10,10,06,35,-0.10
2016,10,10,06,36,-0.10
2016,10,10,06,37,-0.10
2016,10,10,06,38,-0.10
2016,10,10,06,39,-0.10
2016,10,10,06,40,-0.10
2016,10,10,06,41,-0.10
2016,10,10,06,42,-0.10
2016,10,10,06,43,-0.10
2016,10,10,06,44,-0.10
2016,10,10,06,45,-0.10
2016,10,10,06,46,-0.10
2016,10,10,06,47,-0.10
2016,10,10,06,48,-0.10
2016,10,10,06,49,-0.20
2016,10,10,06,50,-0.20
2016,10,10,06,51,-0.20
2016,10,10,06,52,-0.20
2016,10,10,06,53,-0.20
2016,10,10,06,54,-0.20
2016,10,10,06,55,-0.20
2016,10,10,06,56,-0.20
2016,10,10,06,57,-0.20
2016,10,10,06,58,-0.20
2016,10,10,06,59,-0.20
2016,10,10,07,00,-0.20
2016,10,10,07,01,-0.20
2016,10,10,07,02,-0.20
2016,10,10,07,03,-0.20
2016,10,10,07,04,-0.20
2016,10,10,07,05,-0.20
2016,10,10,07,06,-0.20
2016,10,10,07,07,-0.20
2016,10,10,07,08,-0.20
2016,10,10,07,09,-0.30
2016,10,10,07,10,-0.30
2016,10,10,07,11,-0.30
2016,10,10,07,12,-0.30
2016,10,10,07,13,-0.30
2016,10,10,07,14,-0.30
2016,10,10,07,15,-0.30
2016,10,10,07,16,-0.30
2016,10,10,07,17,-0.30
2016,10,10,07,18,-0.30
2016,10,10,07,19,-0.30
2016,10,10,07,20,-0.30
2016,10,10,07,21,-0.30
2016,10,10,07,22,-0.30
2016,10,10,07,23,-0.30
2016,10,10,07,24,-0.30
2016,10,10,07,25,-0.30
2016,10,10,07,26,-0.30
2016,10,10,07,27,-0.30
2016,10,10,07,28,-0.30
2016,10,10,07,29,-0.30
2016,10,10,07,30,-0.30
2016,10,10,07,31,-0.30
2016,10,10,07,32,-0.30
2016,10,10,07,33,-0.40
2016,10,10,07,34,-0.40
2016,10,10,07,35,-0.40
2016,10,10,07,36,-0.40
2016,10,10,07,37,-0.30
2016,10,10,07,38,-0.30
2016,10,10,07,39,-0.30
2016,10,10,07,40,-0.30
2016,10,10,07,41,-0.30
2016,10,10,07,42,-0.30
2016,10,10,07,43,-0.30
2016,10,10,07,44,-0.30
2016,10,10,07,45,-0.30
2016,10,10,07,46,-0.30
2016,10,10,07,47,-0.30
2016,10,10,07,48,-0.20
2016,10,10,07,49,-0.20
2016,10,10,07,50,-0.20
2016,10,10,07,51,-0.20
2016,10,10,07,52,-0.20
2016,10,10,07,53,-0.30
2016,10,10,07,54,-0.30
2016,10,10,07,55,-0.30
2016,10,10,07,56,-0.30
2016,10,10,07,57,-0.30
2016,10,10,07,58,-0.30
2016,10,10,07,59,-0.30
2016,10,10,08,00,-0.30
2016,10,10,08,01,-0.30
2016,10,10,08,02,-0.30
2016,10,10,08,03,-0.30
2016,10,10,08,04,-0.30
2016,10,10,08,05,-0.30
2016,10,10,08,06,-0.30
2016,10,10,08,07,-0.30
2016,10,10,08,08,-0.30
2016,10,10,08,09,-0.30
2016,10,10,08,10,-0.30
2016,10,10,08,11,-0.30
2016,10,10,08,12,-0.30
2016,10,10,08,13,-0.30
2016,10,10,08,14,-0.30
2016,10,10,08,15,-0.40
2016,10,10,08,16,-0.40
2016,10,10,08,17,-0.40
2016,10,10,08,18,-0.40
2016,10,10,08,19,-0.40
2016,10,10,08,20,-0.40
2016,10,10,08,21,-0.40
2016,10,10,08,22,-0.40
2016,10,10,08,23,-0.40
2016,10,10,08,24,-0.40
2016,10,10,08,25,-0.40
2016,10,10,08,26,-0.30
2016,10,10,08,27,-0.30
2016,10,10,08,28,-0.30
2016,10,10,08,29,-0.30
2016,10,10,08,30,-0.30
2016,10,10,08,31,-0.30
2016,10,10,08,32,-0.20
2016,10,10,08,33,-0.20
2016,10,10,08,34,-0.20
2016,10,10,08,35,-0.20
2016,10,10,08,36,-0.10
2016,10,10,08,37,-0.10
2016,10,10,08,38,-0.10
2016,10,10,08,39,0.00
2016,10,10,08,40,0.10
2016,10,10,08,41,0.10
2016,10,10,08,42,0.10
2016,10,10,08,43,0.20
2016,10,10,08,44,0.20
2016,10,10,08,45,0.30
2016,10,10,08,46,0.30
2016,10,10,08,47,0.40
2016,10,10,08,48,0.40
2016,10,10,08,49,0.50
2016,10,10,08,50,0.60
2016,10,10,08,51,0.60
2016,10,10,08,52,0.70
2016,10,10,08,53,0.70
2016,10,10,08,54,0.80
2016,10,10,08,55,0.80
2016,10,10,08,56,0.90
2016,10,10,08,57,0.90
2016,10,10,08,58,0.90
2016,10,10,08,59,1.00
2016,10,10,09,00,1.00
2016,10,10,09,01,1.10
2016,10,10,09,02,1.10
2016,10,10,09,03,1.20
2016,10,10,09,04,1.20
2016,10,10,09,05,1.30
2016,10,10,09,06,1.30
2016,10,10,09,07,1.30
2016,10,10,09,08,1.30
2016,10,10,09,09,1.40
2016,10,10,09,10,1.40
2016,10,10,09,11,1.50
2016,10,10,09,12,1.60
2016,10,10,09,13,1.70
2016,10,10,09,14,1.80
2016,10,10,09,15,1.80
2016,10,10,09,16,1.90
2016,10,10,09,17,2.00
2016,10,10,09,18,2.10
2016,10,10,09,19,2.20
2016,10,10,09,20,2.20
2016,10,10,09,21,2.30
2016,10,10,09,22,2.40
2016,10,10,09,23,2.50
2016,10,10,09,24,2.60
2016,10,10,09,25,2.70
2016,10,10,09,26,2.80
2016,10,10,09,27,2.90
2016,10,10,09,28,3.00
2016,10,10,09,29,3.00
2016,10,10,09,30,3.10
2016,10,10,09,31,3.20
2016,10,10,09,32,3.30
2016,10,10,09,33,3.30
2016,10,10,09,34,3.40
2016,10,10,09,35,3.40
2016,10,10,09,36,3.50
2016,10,10,09,37,3.60
2016,10,10,09,38,3.70
2016,10,10,09,39,3.70
2016,10,10,09,40,3.80
2016,10,10,09,41,3.90
2016,10,10,09,42,4.00
2016,10,10,09,43,4.00
2016,10,10,09,44,4.10
2016,10,10,09,45,4.20
2016,10,10,09,46,4.30
2016,10,10,09,47,4.40
2016,10,10,09,48,4.40
2016,10,10,09,49,4.50
2016,10,10,09,50,4.60
2016,10,10,09,51,4.70
2016,10,10,09,52,4.80
2016,10,10,09,53,4.80
2016,10,10,09,54,4.90
2016,10,10,09,55,4.90
2016,10,10,09,56,5.00
2016,10,10,09,57,5.10
2016,10,10,09,58,5.10
2016,10,10,09,59,5.20
2016,10,10,10,00,5.30
2016,10,10,10,01,5.40
2016,10,10,10,02,5.40
2016,10,10,10,03,5.50
2016,10,10,10,04,5.60
2016,10,10,10,05,5.70
2016,10,10,10,06,5.80
2016,10,10,10,07,5.90
2016,10,10,10,08,6.00
2016,10,10,10,09,6.10
2016,10,10,10,10,6.20
2016,10,10,10,11,6.30
2016,10,10,10,12,6.40
2016,10,10,10,13,6.50
2016,10,10,10,14,6.60
2016,10,10,10,15,6.70
2016,10,10,10,16,6.80
2016,10,10,10,17,6.90
2016,10,10,10,18,7.00
2016,10,10,10,19,7.10
2016,10,10,10,20,7.20
2016,10,10,10,21,7.30
2016,10,10,10,22,7.40
2016,10,10,10,23,7.50
2016,10,10,10,24,7.50
2016,10,10,10,25,7.60
2016,10,10,10,26,7.70
2016,10,10,10,27,7.70
2016,10,10,10,28,7.80
2016,10,10,10,29,7.80
2016,10,10,10,30,7.90
2016,10,10,10,31,8.00
2016,10,10,10,32,8.00
2016,10,10,10,33,8.10
2016,10,10,10,34,8.20
2016,10,10,10,35,8.20
2016,10,10,10,36,8.20
2016,10,10,10,37,8.30
2016,10,10,10,38,8.30
2016,10,10,10,39,8.30
2016,10,10,10,40,8.40
2016,10,10,10,41,8.40
2016,10,10,10,42,8.40
2016,10,10,10,43,8.40
2016,10,10,10,44,8.50
2016,10,10,10,45,8.50
2016,10,10,10,46,8.60
2016,10,10,10,47,8.60
2016,10,10,10,48,8.70
2016,10,10,10,49,8.80
2016,10,10,10,50,8.80
2016,10,10,10,51,8.90
2016,10,10,10,52,9.00
2016,10,10,10,53,9.10
2016,10,10,10,54,9.20
2016,10,10,10,55,9.30
2016,10,10,10,56,9.30
2016,10,10,10,57,9.40
2016,10,10,10,58,9.40
2016,10,10,10,59,9.50
2016,10,10,11,00,9.60
2016,10,10,11,01,9.70
2016,10,10,11,02,9.80
2016,10,10,11,03,9.90
2016,10,10,11,04,9.90
2016,10,10,11,05,10.00
2016,10,10,11,06,10.10
2016,10,10,11,07,10.10
2016,10,10,11,08,10.10
2016,10,10,11,09,10.20
2016,10,10,11,10,10.30
2016,10,10,11,11,10.30
2016,10,10,11,12,10.40
2016,10,10,11,13,10.40
2016,10,10,11,14,10.50
2016,10,10,11,15,10.60
2016,10,10,11,16,10.60
2016,10,10,11,17,10.60
2016,10,10,11,18,10.60
2016,10,10,11,19,10.70
2016,10,10,11,20,10.70
2016,10,10,11,21,10.70
2016,10,10,11,22,10.70
2016,10,10,11,23,10.70
2016,10,10,11,24,10.70
2016,10,10,11,25,10.70
2016,10,10,11,26,10.70
2016,10,10,11,27,10.70
2016,10,10,11,28,10.80
2016,10,10,11,29,10.80
2016,10,10,11,30,10.80
2016,10,10,11,31,10.90
2016,10,10,11,32,10.90
2016,10,10,11,33,10.90
2016,10,10,11,34,11.00
2016,10,10,11,35,11.00
2016,10,10,11,36,11.00
2016,10,10,11,37,11.10
2016,10,10,11,38,11.10
2016,10,10,11,39,11.10
2016,10,10,11,40,11.10
2016,10,10,11,41,11.20
2016,10,10,11,42,11.20
2016,10,10,11,43,11.20
2016,10,10,11,44,11.20
2016,10,10,11,45,11.20
2016,10,10,11,46,11.20
2016,10,10,11,47,11.20
2016,10,10,11,48,11.20
2016,10,10,11,49,11.20
2016,10,10,11,50,11.30
2016,10,10,11,51,11.30
2016,10,10,11,52,11.30
2016,10,10,11,53,11.30
2016,10,10,11,54,11.30
2016,10,10,11,55,11.30
2016,10,10,11,56,11.30
2016,10,10,11,57,11.30
2016,10,10,11,58,11.40
2016,10,10,11,59,11.40
2016,10,10,12,00,11.40
2016,10,10,12,01,11.40
2016,10,10,12,02,11.40
2016,10,10,12,03,11.40
2016,10,10,12,04,11.40
2016,10,10,12,05,11.40
2016,10,10,12,06,11.30
2016,10,10,12,07,11.30
2016,10,10,12,08,11.30
2016,10,10,12,09,11.30
2016,10,10,12,10,11.30
2016,10,10,12,11,11.30
2016,10,10,12,12,11.30
2016,10,10,12,13,11.40
2016,10,10,12,14,11.40
2016,10,10,12,15,11.40
2016,10,10,12,16,11.40
2016,10,10,12,17,11.40
2016,10,10,12,18,11.40
2016,10,10,12,19,11.40
2016,10,10,12,20,11.40
2016,10,10,12,21,11.40
2016,10,10,12,22,11.40
2016,10,10,12,23,11.40
2016,10,10,12,24,11.40
2016,10,10,12,25,11.40
2016,10,10,12,26,11.50
2016,10,10,12,27,11.50
2016,10,10,12,28,11.50
2016,10,10,12,29,11.50
2016,10,10,12,30,11.60
2016,10,10,12,31,11.60
2016,10,10,12,32,11.60
2016,10,10,12,33,11.60
2016,10,10,12,34,11.70
2016,10,10,12,35,11.70
2016,10,10,12,36,11.70
2016,10,10,12,37,11.70
2016,10,10,12,38,11.70
2016,10,10,12,39,11.70
2016,10,10,12,40,11.70
2016,10,10,12,41,11.70
2016,10,10,12,42,11.70
2016,10,10,12,43,11.70
2016,10,10,12,44,11.70
2016,10,10,12,45,11.80
2016,10,10,12,46,11.80
2016,10,10,12,47,11.80
2016,10,10,12,48,11.80
2016,10,10,12,49,11.80
2016,10,10,12,50,11.90
2016,10,10,12,51,11.90
2016,10,10,12,52,11.90
2016,10,10,12,53,12.00
2016,10,10,12,54,12.00
2016,10,10,12,55,12.00
2016,10,10,12,56,12.00
2016,10,10,12,57,11.90
2016,10,10,12,58,11.90
2016,10,10,12,59,11.90
2016,10,10,13,00,11.80
2016,10,10,13,01,11.80
2016,10,10,13,02,11.80
2016,10,10,13,03,11.70
2016,10,10,13,04,11.70
2016,10,10,13,05,11.70
2016,10,10,13,06,11.70
2016,10,10,13,07,11.70
2016,10,10,13,08,11.70
2016,10,10,13,09,11.70
2016,10,10,13,10,11.70
2016,10,10,13,11,11.70
2016,10,10,13,12,11.70
2016,10,10,13,13,11.80
2016,10,10,13,14,11.80
2016,10,10,13,15,11.80
2016,10,10,13,16,11.80
2016,10,10,13,17,11.80
2016,10,10,13,18,11.80
2016,10,10,13,19,11.80
2016,10,10,13,20,11.80
2016,10,10,13,21,11.90
2016,10,10,13,22,11.90
2016,10,10,13,23,12.00
2016,10,10,13,24,12.00
2016,10,10,13,25,12.00
2016,10,10,13,26,12.00
2016,10,10,13,27,12.00
2016,10,10,13,28,12.10
2016,10,10,13,29,12.10
2016,10,10,13,30,12.10
2016,10,10,13,31,12.10
2016,10,10,13,32,12.20
2016,10,10,13,33,12.20
2016,10,10,13,34,12.20
2016,10,10,13,35,12.30
2016,10,10,13,36,12.30
2016,10,10,13,37,12.40
2016,10,10,13,38,12.40
2016,10,10,13,39,12.40
2016,10,10,13,40,12.40
2016,10,10,13,41,12.40
2016,10,10,13,42,12.30
2016,10,10,13,43,12.30
2016,10,10,13,44,12.30
2016,10,10,13,45,12.30
2016,10,10,13,46,12.30
2016,10,10,13,47,12.30
2016,10,10,13,48,12.30
2016,10,10,13,49,12.30
2016,10,10,13,50,12.30
2016,10,10,13,51,12.30
2016,10,10,13,52,12.30
2016,10,10,13,53,12.30
2016,10,10,13,54,12.40
2016,10,10,13,55,12.40
2016,10,10,13,56,12.40
2016,10,10,13,57,12.40
2016,10,10,13,58,12.40
2016,10,10,13,59,12.40
2016,10,10,14,00,12.50
2016,10,10,14,01,12.50
2016,10,10,14,02,12.60
2016,10,10,14,03,12.60
2016,10,10,14,04,12.60
2016,10,10,14,05,12.70
2016,10,10,14,06,12.70
2016,10,10,14,07,12.70
2016,10,10,14,08,12.70
2016,10,10,14,09,12.70
2016,10,10,14,10,12.80
2016,10,10,14,11,12.80
2016,10,10,14,12,12.90
2016,10,10,14,13,12.90
2016,10,10,14,14,12.90
2016,10,10,14,15,12.80
2016,10,10,14,16,12.80
2016,10,10,14,17,12.80
2016,10,10,14,18,12.80
2016,10,10,14,19,12.80
2016,10,10,14,20,12.90
2016,10,10,14,21,12.90
2016,10,10,14,22,12.90
2016,10,10,14,23,12.90
2016,10,10,14,24,12.90
2016,10,10,14,25,12.90
2016,10,10,14,26,12.90
2016,10,10,14,27,12.90
2016,10,10,14,28,12.90
2016,10,10,14,29,12.90
2016,10,10,14,30,12.90
2016,10,10,14,31,12.90
2016,10,10,14,32,12.90
2016,10,10,14,33,12.80
2016,10,10,14,34,12.80
2016,10,10,14,35,12.80
2016,10,10,14,36,12.80
2016,10,10,14,37,12.80
2016,10,10,14,38,12.80
2016,10,10,14,39,12.80
2016,10,10,14,40,12.80
2016,10,10,14,41,12.80
2016,10,10,14,42,12.80
2016,10,10,14,43,12.80
2016,10,10,14,44,12.80
2016,10,10,14,45,12.80
2016,10,10,14,46,12.80
2016,10,10,14,47,12.80
2016,10,10,14,48,12.80
2016,10,10,14,49,12.90
2016,10,10,14,50,12.90
2016,10,10,14,51,12.90
2016,10,10,14,52,12.90
2016,10,10,14,53,12.90
2016,10,10,14,54,12.90
2016,10,10,14,55,12.90
2016,10,10,14,56,13.00
2016,10,10,14,57,13.00
2016,10,10,14,58,13.00
2016,10,10,14,59,13.10
2016,10,10,15,00,13.10
2016,10,10,15,01,13.10
2016,10,10,15,02,13.10
2016,10,10,15,03,13.20
2016,10,10,15,04,13.20
2016,10,10,15,05,13.20
2016,10,10,15,06,13.30
2016,10,10,15,07,13.30
2016,10,10,15,08,13.30
2016,10,10,15,09,13.30
2016,10,10,15,10,13.40
2016,10,10,15,11,13.40
2016,10,10,15,12,13.40
2016,10,10,15,13,13.40
2016,10,10,15,14,13.40
2016,10,10,15,15,13.40
2016,10,10,15,16,13.40
2016,10,10,15,17,13.40
2016,10,10,15,18,13.40
2016,10,10,15,19,13.40
2016,10,10,15,20,13.50
2016,10,10,15,21,13.50
2016,10,10,15,22,13.50
2016,10,10,15,23,13.50
2016,10,10,15,24,13.40
2016,10,10,15,25,13.40
2016,10,10,15,26,13.30
2016,10,10,15,27,13.30
2016,10,10,15,28,13.30
2016,10,10,15,29,13.30
2016,10,10,15,30,13.20
2016,10,10,15,31,13.20
2016,10,10,15,32,13.20
2016,10,10,15,33,13.20
2016,10,10,15,34,13.20
2016,10,10,15,35,13.20
2016,10,10,15,36,13.10
2016,10,10,15,37,13.10
2016,10,10,15,38,13.00
2016,10,10,15,39,13.00
2016,10,10,15,40,12.90
2016,10,10,15,41,12.90
2016,10,10,15,42,12.90
2016,10,10,15,43,12.80
2016,10,10,15,44,12.80
2016,10,10,15,45,12.80
2016,10,10,15,46,12.80
2016,10,10,15,47,12.80
2016,10,10,15,48,12.80
2016,10,10,15,49,12.80
2016,10,10,15,50,12.80
2016,10,10,15,51,12.70
2016,10,10,15,52,12.70
2016,10,10,15,53,12.70
2016,10,10,15,54,12.70
2016,10,10,15,55,12.60
2016,10,10,15,56,12.60
2016,10,10,15,57,12.60
2016,10,10,15,58,12.50
2016,10,10,15,59,12.50
2016,10,10,16,00,12.50
2016,10,10,16,01,12.50
2016,10,10,16,02,12.50
2016,10,10,16,03,12.50
2016,10,10,16,04,12.60
2016,10,10,16,05,12.60
2016,10,10,16,06,12.60
2016,10,10,16,07,12.60
2016,10,10,16,08,12.60
2016,10,10,16,09,12.60
2016,10,10,16,10,12.60
2016,10,10,16,11,12.60
2016,10,10,16,12,12.60
2016,10,10,16,13,12.60
2016,10,10,16,14,12.60
2016,10,10,16,15,12.60
2016,10,10,16,16,12.60
2016,10,10,16,17,12.60
2016,10,10,16,18,12.60
2016,10,10,16,19,12.70
2016,10,10,16,20,12.70
2016,10,10,16,21,12.70
2016,10,10,16,22,12.70
2016,10,10,16,23,12.80
2016,10,10,16,24,12.80
2016,10,10,16,25,12.80
2016,10,10,16,26,12.80
2016,10,10,16,27,12.90
2016,10,10,16,28,12.90
2016,10,10,16,29,12.90
2016,10,10,16,30,12.90
2016,10,10,16,31,12.90
2016,10,10,16,32,12.90
2016,10,10,16,33,12.90
2016,10,10,16,34,12.90
2016,10,10,16,35,12.90
2016,10,10,16,36,12.90
2016,10,10,16,37,12.90
2016,10,10,16,38,12.90
2016,10,10,16,39,12.90
2016,10,10,16,40,12.90
2016,10,10,16,41,12.90
2016,10,10,16,42,12.90
2016,10,10,16,43,12.90
2016,10,10,16,44,12.90
2016,10,10,16,45,12.90
2016,10,10,16,46,12.80
2016,10,10,16,47,12.80
2016,10,10,16,48,12.80
2016,10,10,16,49,12.70
2016,10,10,16,50,12.70
2016,10,10,16,51,12.70
2016,10,10,16,52,12.70
2016,10,10,16,53,12.70
2016,10,10,16,54,12.70
2016,10,10,16,55,12.60
2016,10,10,16,56,12.60
2016,10,10,16,57,12.60
2016,10,10,16,58,12.60
2016,10,10,16,59,12.60
2016,10,10,17,00,12.60
2016,10,10,17,01,12.60
2016,10,10,17,02,12.60
2016,10,10,17,03,12.60
2016,10,10,17,04,12.60
2016,10,10,17,05,12.60
2016,10,10,17,06,12.60
2016,10,10,17,07,12.60
2016,10,10,17,08,12.60
2016,10,10,17,09,12.60
2016,10,10,17,10,12.60
2016,10,10,17,11,12.60
2016,10,10,17,12,12.60
2016,10,10,17,13,12.60
2016,10,10,17,14,12.60
2016,10,10,17,15,12.60
2016,10,10,17,16,12.60
2016,10,10,17,17,12.70
2016,10,10,17,18,12.70
2016,10,10,17,19,12.70
2016,10,10,17,20,12.70
2016,10,10,17,21,12.70
2016,10,10,17,22,12.70
2016,10,10,17,23,12.80
2016,10,10,17,24,12.80
2016,10,10,17,25,12.80
2016,10,10,17,26,12.80
2016,10,10,17,27,12.90
2016,10,10,17,28,12.90
2016,10,10,17,29,12.90
2016,10,10,17,30,13.00
2016,10,10,17,31,13.00
2016,10,10,17,32,13.00
2016,10,10,17,33,13.10
2016,10,10,17,34,13.10
2016,10,10,17,35,13.10
2016,10,10,17,36,13.10
2016,10,10,17,37,13.10
2016,10,10,17,38,13.20
2016,10,10,17,39,13.20
2016,10,10,17,40,13.20
2016,10,10,17,41,13.20
2016,10,10,17,42,13.20